Tracking 29892 objects as of 21-Nov-2024
HD Live streaming from Space Station
objects crossing your sky now

STARLINK-4718

Track STARLINK-4718 now!
10-day predictions
STARLINK-4718 is classified as:


NORAD ID: 53773
Int'l Code: 2022-111A
Perigee: 545.9 km
Apogee: 547.8 km
Inclination: 53.2 °
Period: 95.4 minutes
Semi major axis: 6917 km
RCS: Unknown
Launch date: September 11, 2022
Source: United States (US)
Launch site: AIR FORCE EASTERN TEST RANGE (AFETR)
Your satellite tracking list
Your tracking list is empty




NASA's NSSDC Master Catalog

Two Line Element Set (TLE):
1 53773U 22111A   24325.19058192  .00000611  00000-0  56493-4 0  9992
2 53773  53.2184 254.1516 0001408 106.8061 253.3085 15.08847545121118
Source of the keplerian elements: AFSPC